Time,TemperatureF,DewpointF,PressureIn,WindDirection,WindDirectionDegrees,WindSpeedMPH,WindSpeedGustMPH,Humidity,HourlyPrecipIn,Conditions,Clouds,dailyrainin,SoftwareType,DateUTC
2013-04-21 00:00:00,38.7,21.2,28.88,ESE,112,4.0,4.9,49,0.00,,,0.00,VWS V14.01,2013-04-21 05:00:00,
2013-04-21 00:05:00,38.7,21.2,28.88,ESE,112,5.6,6.3,49,0.00,,,0.00,VWS V14.01,2013-04-21 05:05:00,
2013-04-21 00:10:00,38.7,21.6,28.88,ESE,112,5.8,6.3,50,0.00,,,0.00,VWS V14.01,2013-04-21 05:10:00,
2013-04-21 00:15:00,38.8,21.8,28.88,ESE,112,6.3,7.2,50,0.00,,,0.00,VWS V14.01,2013-04-21 05:15:00,
2013-04-21 00:20:00,38.8,21.3,28.88,ENE,68,2.7,6.3,49,0.00,,,0.00,VWS V14.01,2013-04-21 05:20:00,
2013-04-21 00:25:00,38.8,21.3,28.88,ESE,112,3.4,3.8,49,0.00,,,0.00,VWS V14.01,2013-04-21 05:25:00,
2013-04-21 00:30:00,38.8,21.3,28.88,ESE,112,6.0,6.0,49,0.00,,,0.00,VWS V14.01,2013-04-21 05:30:00,
2013-04-21 00:35:00,38.8,21.3,28.88,ESE,112,5.4,6.0,49,0.00,,,0.00,VWS V14.01,2013-04-21 05:35:00,
2013-04-21 00:40:00,38.8,21.3,28.88,ENE,68,3.8,5.8,49,0.00,,,0.00,VWS V14.01,2013-04-21 05:40:00,
2013-04-21 00:45:00,38.8,21.3,28.88,ESE,112,3.1,4.9,49,0.00,,,0.00,VWS V14.01,2013-04-21 05:45:00,
2013-04-21 00:50:00,38.8,21.3,28.88,East,90,2.9,5.8,49,0.00,,,0.00,VWS V14.01,2013-04-21 05:50:00,
2013-04-21 00:55:00,38.7,21.6,28.88,ENE,68,4.5,6.0,50,0.00,,,0.00,VWS V14.01,2013-04-21 05:55:00,
2013-04-21 01:00:00,38.7,21.6,28.88,East,90,4.7,6.3,50,0.00,,,0.00,VWS V14.01,2013-04-21 06:00:00,
2013-04-21 01:05:00,38.7,21.6,28.88,East,90,5.4,5.4,50,0.00,,,0.00,VWS V14.01,2013-04-21 06:05:00,
2013-04-21 01:10:00,38.5,21.9,28.91,ENE,68,3.8,5.4,51,0.00,,,0.00,VWS V14.01,2013-04-21 06:10:00,
2013-04-21 01:14:00,38.3,22.2,28.91,East,90,4.0,5.8,52,0.00,,,0.00,VWS V14.01,2013-04-21 06:14:00,
2013-04-21 01:15:00,38.3,22.2,28.91,East,90,4.0,5.8,52,0.00,,,0.00,VWS V14.01,2013-04-21 06:15:00,
2013-04-21 01:20:00,38.5,22.4,28.91,ESE,112,4.3,6.0,52,0.00,,,0.00,VWS V14.01,2013-04-21 06:20:00,
2013-04-21 01:25:00,38.5,22.4,28.88,ESE,112,7.6,7.8,52,0.00,,,0.00,VWS V14.01,2013-04-21 06:25:00,
2013-04-21 01:30:00,38.5,21.9,28.88,ESE,112,7.6,8.7,51,0.00,,,0.00,VWS V14.01,2013-04-21 06:30:00,
2013-04-21 01:35:00,38.7,22.1,28.88,ESE,112,10.3,11.0,51,0.00,,,0.00,VWS V14.01,2013-04-21 06:35:00,
2013-04-21 01:40:00,38.8,21.8,28.85,ESE,112,6.3,10.3,50,0.00,,,0.00,VWS V14.01,2013-04-21 06:40:00,
2013-04-21 01:45:00,38.8,21.8,28.85,ESE,112,7.2,10.1,50,0.00,,,0.00,VWS V14.01,2013-04-21 06:45:00,
2013-04-21 01:49:00,38.7,22.6,28.85,ESE,112,5.4,7.8,52,0.00,,,0.00,VWS V14.01,2013-04-21 06:49:00,
2013-04-21 01:50:00,38.7,22.6,28.85,ESE,112,5.4,7.8,52,0.00,,,0.00,VWS V14.01,2013-04-21 06:50:00,
2013-04-21 01:55:00,38.5,22.9,28.88,ESE,112,4.9,7.6,53,0.00,,,0.00,VWS V14.01,2013-04-21 06:55:00,
2013-04-21 02:00:00,38.5,22.9,28.88,ESE,112,5.8,7.8,53,0.00,,,0.00,VWS V14.01,2013-04-21 07:00:00,
2013-04-21 02:05:00,38.5,22.9,28.88,ESE,112,5.8,7.6,53,0.00,,,0.00,VWS V14.01,2013-04-21 07:05:00,
2013-04-21 02:10:00,38.5,22.9,28.85,ESE,112,8.7,9.6,53,0.00,,,0.00,VWS V14.01,2013-04-21 07:10:00,
2013-04-21 02:15:00,38.5,22.9,28.85,ESE,112,9.8,10.5,53,0.00,,,0.00,VWS V14.01,2013-04-21 07:15:00,
2013-04-21 02:20:00,38.5,23.3,28.85,ESE,112,10.1,13.0,54,0.00,,,0.00,VWS V14.01,2013-04-21 07:20:00,
2013-04-21 02:25:00,38.3,23.6,28.85,ESE,112,11.0,12.3,55,0.00,,,0.00,VWS V14.01,2013-04-21 07:25:00,
2013-04-21 02:29:00,38.3,23.6,28.85,SE,135,12.8,13.2,55,0.00,,,0.00,VWS V14.01,2013-04-21 07:29:00,
2013-04-21 02:30:00,38.3,23.6,28.85,SE,135,12.8,13.2,55,0.00,,,0.00,VWS V14.01,2013-04-21 07:30:00,
2013-04-21 02:34:00,38.1,23.8,28.85,ESE,112,9.8,12.8,56,0.00,,,0.00,VWS V14.01,2013-04-21 07:34:00,
2013-04-21 02:35:00,38.1,23.8,28.85,ESE,112,9.8,12.8,56,0.00,,,0.00,VWS V14.01,2013-04-21 07:35:00,
2013-04-21 02:40:00,38.3,23.6,28.85,ESE,112,10.7,12.3,55,0.00,,,0.00,VWS V14.01,2013-04-21 07:40:00,
2013-04-21 02:45:00,38.3,23.6,28.85,ESE,112,9.8,13.9,55,0.00,,,0.00,VWS V14.01,2013-04-21 07:45:00,
2013-04-21 02:50:00,38.5,23.3,28.85,ESE,112,9.6,12.3,54,0.00,,,0.00,VWS V14.01,2013-04-21 07:50:00,
2013-04-21 02:55:00,38.5,23.3,28.85,ESE,112,8.7,12.3,54,0.00,,,0.00,VWS V14.01,2013-04-21 07:55:00,
2013-04-21 03:00:00,38.5,23.3,28.85,ESE,112,7.6,10.5,54,0.00,,,0.00,VWS V14.01,2013-04-21 08:00:00,
2013-04-21 03:05:00,38.3,23.1,28.85,ESE,112,8.5,12.8,54,0.00,,,0.00,VWS V14.01,2013-04-21 08:05:00,
2013-04-21 03:10:00,38.3,23.6,28.85,ESE,112,8.1,11.9,55,0.00,,,0.00,VWS V14.01,2013-04-21 08:10:00,
2013-04-21 03:15:00,38.5,23.7,28.85,ESE,112,6.0,12.5,55,0.00,,,0.00,VWS V14.01,2013-04-21 08:15:00,
2013-04-21 03:20:00,38.3,23.6,28.85,ESE,112,11.0,12.1,55,0.00,,,0.00,VWS V14.01,2013-04-21 08:20:00,
2013-04-21 03:25:00,38.3,23.6,28.85,ESE,112,10.5,11.0,55,0.00,,,0.00,VWS V14.01,2013-04-21 08:25:00,
2013-04-21 03:30:00,38.3,23.6,28.85,East,90,9.2,13.0,55,0.00,,,0.00,VWS V14.01,2013-04-21 08:30:00,
2013-04-21 03:35:00,38.3,24.0,28.85,ESE,112,8.1,12.8,56,0.00,,,0.00,VWS V14.01,2013-04-21 08:35:00,
2013-04-21 03:40:00,38.1,24.2,28.85,ESE,112,6.0,11.4,57,0.00,,,0.00,VWS V14.01,2013-04-21 08:40:00,
2013-04-21 03:45:00,38.1,24.7,28.85,ESE,112,10.3,12.3,58,0.00,,,0.00,VWS V14.01,2013-04-21 08:45:00,
2013-04-21 03:50:00,37.9,24.9,28.85,ESE,112,11.0,12.8,59,0.00,,,0.00,VWS V14.01,2013-04-21 08:50:00,
2013-04-21 03:55:00,37.9,25.3,28.82,ESE,112,9.6,14.3,60,0.00,,,0.00,VWS V14.01,2013-04-21 08:55:00,
2013-04-21 04:00:00,37.9,25.3,28.82,ESE,112,9.6,13.0,60,0.00,,,0.00,VWS V14.01,2013-04-21 09:00:00,
2013-04-21 04:05:00,37.9,26.1,28.82,ESE,112,8.5,12.8,62,0.00,,,0.00,VWS V14.01,2013-04-21 09:05:00,
2013-04-21 04:10:00,37.9,26.5,28.82,ESE,112,9.0,12.1,63,0.00,,,0.00,VWS V14.01,2013-04-21 09:10:00,
2013-04-21 04:15:00,37.9,26.5,28.82,ESE,112,8.5,12.8,63,0.00,,,0.00,VWS V14.01,2013-04-21 09:15:00,
2013-04-21 04:20:00,37.9,26.1,28.82,ESE,112,8.1,10.5,62,0.00,,,0.00,VWS V14.01,2013-04-21 09:20:00,
2013-04-21 04:25:00,38.1,25.9,28.85,ESE,112,7.8,10.3,61,0.00,,,0.00,VWS V14.01,2013-04-21 09:25:00,
2013-04-21 04:30:00,38.1,25.9,28.85,ESE,112,7.6,8.5,61,0.00,,,0.00,VWS V14.01,2013-04-21 09:30:00,
2013-04-21 04:35:00,38.1,25.9,28.85,ESE,112,8.1,8.1,61,0.00,,,0.00,VWS V14.01,2013-04-21 09:35:00,
2013-04-21 04:40:00,38.1,25.9,28.82,ESE,112,9.2,10.1,61,0.00,,,0.00,VWS V14.01,2013-04-21 09:40:00,
2013-04-21 04:45:00,38.1,26.3,28.82,ESE,112,6.7,10.1,62,0.00,,,0.00,VWS V14.01,2013-04-21 09:45:00,
2013-04-21 04:50:00,38.1,26.3,28.82,ESE,112,6.3,11.0,62,0.00,,,0.00,VWS V14.01,2013-04-21 09:50:00,
2013-04-21 04:55:00,38.1,26.3,28.82,ESE,112,8.1,11.0,62,0.00,,,0.00,VWS V14.01,2013-04-21 09:55:00,
2013-04-21 05:00:00,38.1,27.0,28.82,East,90,11.0,11.0,64,0.00,,,0.00,VWS V14.01,2013-04-21 10:00:00,
2013-04-21 05:05:00,38.1,27.4,28.82,ESE,112,8.7,11.9,65,0.00,,,0.00,VWS V14.01,2013-04-21 10:05:00,
2013-04-21 05:10:00,38.1,27.8,28.82,ESE,112,8.5,12.1,66,0.00,,,0.00,VWS V14.01,2013-04-21 10:10:00,
2013-04-21 05:15:00,37.9,27.6,28.82,ESE,112,11.4,12.3,66,0.00,,,0.00,VWS V14.01,2013-04-21 10:15:00,
2013-04-21 05:20:00,37.9,27.6,28.82,ESE,112,7.6,13.4,66,0.00,,,0.00,VWS V14.01,2013-04-21 10:20:00,
2013-04-21 05:25:00,37.8,27.8,28.82,ESE,112,8.7,10.7,67,0.00,,,0.00,VWS V14.01,2013-04-21 10:25:00,
2013-04-21 05:30:00,37.6,27.6,28.82,SE,135,4.3,9.4,67,0.00,,,0.00,VWS V14.01,2013-04-21 10:30:00,
2013-04-21 05:35:00,37.6,27.6,28.82,ESE,112,6.3,8.7,67,0.00,,,0.00,VWS V14.01,2013-04-21 10:35:00,
2013-04-21 05:40:00,37.6,28.4,28.82,ESE,112,6.3,9.6,69,0.00,,,0.00,VWS V14.01,2013-04-21 10:40:00,
2013-04-21 05:45:00,37.6,28.4,28.82,ESE,112,7.8,10.5,69,0.00,,,0.00,VWS V14.01,2013-04-21 10:45:00,
2013-04-21 05:50:00,37.8,28.5,28.82,ESE,112,7.6,9.6,69,0.00,,,0.00,VWS V14.01,2013-04-21 10:50:00,
2013-04-21 05:55:00,37.8,28.5,28.82,SE,135,6.3,9.4,69,0.00,,,0.00,VWS V14.01,2013-04-21 10:55:00,
2013-04-21 06:00:00,37.8,28.5,28.82,SE,135,6.5,7.8,69,0.00,,,0.00,VWS V14.01,2013-04-21 11:00:00,
2013-04-21 06:05:00,37.9,28.3,28.82,SSE,158,6.0,10.3,68,0.00,,,0.00,VWS V14.01,2013-04-21 11:05:00,
2013-04-21 06:10:00,37.9,28.0,28.82,SE,135,9.8,10.5,67,0.00,,,0.00,VWS V14.01,2013-04-21 11:10:00,
2013-04-21 06:15:00,37.9,27.6,28.82,SE,135,10.1,11.0,66,0.00,,,0.00,VWS V14.01,2013-04-21 11:15:00,
2013-04-21 06:20:00,38.3,27.2,28.82,SSE,158,10.3,11.9,64,0.00,,,0.00,VWS V14.01,2013-04-21 11:20:00,
2013-04-21 06:25:00,38.5,27.0,28.85,SE,135,11.0,11.0,63,0.00,,,0.00,VWS V14.01,2013-04-21 11:25:00,
2013-04-21 06:30:00,38.5,26.6,28.85,SE,135,11.0,13.9,62,0.00,,,0.00,VWS V14.01,2013-04-21 11:30:00,
2013-04-21 06:35:00,38.5,27.4,28.85,ESE,112,14.8,15.2,64,0.00,,,0.00,VWS V14.01,2013-04-21 11:35:00,
2013-04-21 06:39:00,38.5,28.1,28.82,SE,135,9.8,19.5,66,0.00,,,0.00,VWS V14.01,2013-04-21 11:39:00,
2013-04-21 06:40:00,38.5,28.1,28.82,SE,135,9.8,19.5,66,0.00,,,0.00,VWS V14.01,2013-04-21 11:40:00,
2013-04-21 06:45:00,38.5,28.1,28.82,SE,135,14.1,17.5,66,0.00,,,0.00,VWS V14.01,2013-04-21 11:45:00,
2013-04-21 06:50:00,38.5,28.1,28.82,SE,135,17.2,19.0,66,0.00,,,0.00,VWS V14.01,2013-04-21 11:50:00,
2013-04-21 06:55:00,38.5,28.5,28.82,SSE,158,15.4,17.2,67,0.00,,,0.00,VWS V14.01,2013-04-21 11:55:00,
2013-04-21 07:00:00,38.5,28.1,28.82,ESE,112,13.2,17.9,66,0.00,,,0.00,VWS V14.01,2013-04-21 12:00:00,
2013-04-21 07:05:00,38.7,28.3,28.82,SE,135,12.8,20.4,66,0.00,,,0.00,VWS V14.01,2013-04-21 12:05:00,
2013-04-21 07:10:00,38.8,28.1,28.82,SE,135,17.5,19.9,65,0.00,,,0.00,VWS V14.01,2013-04-21 12:10:00,
2013-04-21 07:15:00,38.8,28.5,28.82,SE,135,11.4,17.5,66,0.00,,,0.00,VWS V14.01,2013-04-21 12:15:00,
2013-04-21 07:20:00,39.2,27.7,28.82,SE,135,10.5,15.4,63,0.00,,,0.00,VWS V14.01,2013-04-21 12:20:00,
2013-04-21 07:25:00,39.4,27.5,28.82,SE,135,12.3,15.4,62,0.00,,,0.00,VWS V14.01,2013-04-21 12:25:00,
2013-04-21 07:30:00,39.6,27.2,28.82,SE,135,12.8,16.8,61,0.00,,,0.00,VWS V14.01,2013-04-21 12:30:00,
2013-04-21 07:35:00,39.7,27.0,28.82,SE,135,13.0,17.7,60,0.00,,,0.00,VWS V14.01,2013-04-21 12:35:00,
2013-04-21 07:40:00,39.9,27.6,28.82,SE,135,8.5,17.2,61,0.00,,,0.00,VWS V14.01,2013-04-21 12:40:00,
2013-04-21 07:45:00,39.9,27.6,28.82,SE,135,15.2,17.0,61,0.00,,,0.00,VWS V14.01,2013-04-21 12:45:00,
2013-04-21 07:50:00,40.1,27.4,28.82,SE,135,13.9,17.5,60,0.00,,,0.00,VWS V14.01,2013-04-21 12:50:00,
2013-04-21 07:55:00,40.3,27.9,28.82,SE,135,11.0,19.7,61,0.00,,,0.00,VWS V14.01,2013-04-21 12:55:00,
2013-04-21 08:00:00,40.3,27.1,28.82,SE,135,15.2,17.0,59,0.00,,,0.00,VWS V14.01,2013-04-21 13:00:00,
2013-04-21 08:05:00,40.5,27.7,28.82,SE,135,17.7,22.2,60,0.00,,,0.00,VWS V14.01,2013-04-21 13:05:00,
2013-04-21 08:10:00,40.6,27.5,28.82,SE,135,17.2,18.8,59,0.00,,,0.00,VWS V14.01,2013-04-21 13:10:00,
2013-04-21 08:15:00,41.0,27.0,28.82,SSE,158,18.8,18.8,57,0.00,,,0.00,VWS V14.01,2013-04-21 13:15:00,
2013-04-21 08:20:00,41.4,27.3,28.82,SSE,158,16.1,18.8,57,0.00,,,0.00,VWS V14.01,2013-04-21 13:20:00,
2013-04-21 08:25:00,41.7,27.6,28.82,SE,135,17.0,20.8,57,0.00,,,0.00,VWS V14.01,2013-04-21 13:25:00,
2013-04-21 08:30:00,41.9,27.4,28.82,SE,135,15.2,20.8,56,0.00,,,0.00,VWS V14.01,2013-04-21 13:30:00,
2013-04-21 08:35:00,42.6,28.9,28.82,SSE,158,12.5,17.7,58,0.00,,,0.00,VWS V14.01,2013-04-21 13:35:00,
2013-04-21 08:40:00,43.5,28.0,28.85,SSE,158,13.0,21.9,54,0.00,,,0.00,VWS V14.01,2013-04-21 13:40:00,
2013-04-21 08:45:00,43.7,28.2,28.85,SSE,158,17.7,21.0,54,0.00,,,0.00,VWS V14.01,2013-04-21 13:45:00,
2013-04-21 08:50:00,43.7,28.6,28.85,SSE,158,16.6,17.9,55,0.00,,,0.00,VWS V14.01,2013-04-21 13:50:00,
2013-04-21 08:55:00,43.7,27.2,28.82,SE,135,13.0,22.2,52,0.00,,,0.00,VWS V14.01,2013-04-21 13:55:00,
2013-04-21 09:00:00,44.1,28.0,28.82,SSE,158,12.3,19.2,53,0.00,,,0.00,VWS V14.01,2013-04-21 14:00:00,
2013-04-21 09:05:00,44.6,28.1,28.82,SSE,158,11.0,18.8,52,0.00,,,0.00,VWS V14.01,2013-04-21 14:05:00,
2013-04-21 09:10:00,45.9,28.8,28.82,SSE,158,21.5,21.5,51,0.00,,,0.00,VWS V14.01,2013-04-21 14:10:00,
2013-04-21 09:15:00,46.0,28.9,28.82,SSE,158,15.9,22.2,51,0.00,,,0.00,VWS V14.01,2013-04-21 14:15:00,
2013-04-21 09:20:00,46.0,29.9,28.82,SSE,158,12.8,23.3,53,0.00,,,0.00,VWS V14.01,2013-04-21 14:20:00,
2013-04-21 09:25:00,47.1,29.0,28.82,SSE,158,17.0,27.1,49,0.00,,,0.00,VWS V14.01,2013-04-21 14:25:00,
2013-04-21 09:30:00,48.2,30.0,28.82,SSE,158,23.7,25.7,49,0.00,,,0.00,VWS V14.01,2013-04-21 14:30:00,
2013-04-21 09:35:00,47.3,28.6,28.82,SSE,158,19.7,28.6,48,0.00,,,0.00,VWS V14.01,2013-04-21 14:35:00,
2013-04-21 09:40:00,46.9,28.3,28.82,SSE,158,22.6,28.6,48,0.00,,,0.00,VWS V14.01,2013-04-21 14:40:00,
2013-04-21 09:45:00,47.1,29.0,28.82,SSE,158,17.0,26.6,49,0.00,,,0.00,VWS V14.01,2013-04-21 14:45:00,
2013-04-21 09:50:00,46.6,28.5,28.82,SSE,158,23.7,28.4,49,0.00,,,0.00,VWS V14.01,2013-04-21 14:50:00,
2013-04-21 09:55:00,46.4,28.8,28.82,SSE,158,17.2,26.0,50,0.00,,,0.00,VWS V14.01,2013-04-21 14:55:00,
2013-04-21 10:00:00,46.2,29.1,28.82,SSE,158,15.2,26.2,51,0.00,,,0.00,VWS V14.01,2013-04-21 15:00:00,
2013-04-21 10:05:00,46.4,29.8,28.82,SE,135,11.2,19.7,52,0.00,,,0.00,VWS V14.01,2013-04-21 15:05:00,
2013-04-21 10:10:00,46.6,29.4,28.79,SSE,158,23.0,23.0,51,0.00,,,0.00,VWS V14.01,2013-04-21 15:10:00,
2013-04-21 10:15:00,46.8,29.6,28.79,SSE,158,17.5,25.3,51,0.00,,,0.00,VWS V14.01,2013-04-21 15:15:00,
2013-04-21 10:20:00,47.1,30.9,28.79,SSE,158,15.7,19.7,53,0.00,,,0.00,VWS V14.01,2013-04-21 15:20:00,
2013-04-21 10:25:00,47.3,30.1,28.79,SE,135,19.7,24.4,51,0.00,,,0.00,VWS V14.01,2013-04-21 15:25:00,
2013-04-21 10:30:00,47.5,29.8,28.79,SSE,158,18.8,21.0,50,0.00,,,0.00,VWS V14.01,2013-04-21 15:30:00,
2013-04-21 10:35:00,47.7,30.9,28.79,SSE,158,17.7,21.0,52,0.00,,,0.00,VWS V14.01,2013-04-21 15:35:00,
2013-04-21 10:40:00,47.7,30.0,28.79,SSE,158,26.2,26.2,50,0.00,,,0.00,VWS V14.01,2013-04-21 15:40:00,
2013-04-21 10:45:00,48.0,30.8,28.79,SSE,158,17.5,26.2,51,0.00,,,0.00,VWS V14.01,2013-04-21 15:45:00,
2013-04-21 10:50:00,48.7,31.4,28.79,SSE,158,13.2,23.7,51,0.00,,,0.00,VWS V14.01,2013-04-21 15:50:00,
2013-04-21 10:55:00,50.2,32.3,28.79,SSE,158,23.5,27.5,50,0.00,,,0.00,VWS V14.01,2013-04-21 15:55:00,
2013-04-21 11:00:00,49.8,31.4,28.79,SSE,158,19.9,25.3,49,0.00,,,0.00,VWS V14.01,2013-04-21 16:00:00,
2013-04-21 11:05:00,49.3,31.0,28.79,SSE,158,24.4,26.9,49,0.00,,,0.00,VWS V14.01,2013-04-21 16:05:00,
2013-04-21 11:10:00,49.3,31.0,28.79,SSE,158,24.6,26.6,49,0.00,,,0.00,VWS V14.01,2013-04-21 16:10:00,
2013-04-21 11:15:00,49.6,31.8,28.79,SSE,158,25.1,25.1,50,0.00,,,0.00,VWS V14.01,2013-04-21 16:15:00,
2013-04-21 11:20:00,49.8,31.4,28.79,SSE,158,21.3,26.0,49,0.00,,,0.00,VWS V14.01,2013-04-21 16:20:00,
2013-04-21 11:25:00,50.4,32.4,28.79,SSE,158,17.5,24.6,50,0.00,,,0.00,VWS V14.01,2013-04-21 16:25:00,
2013-04-21 11:30:00,50.5,31.6,28.79,SSE,158,17.7,23.5,48,0.00,,,0.00,VWS V14.01,2013-04-21 16:30:00,
2013-04-21 11:35:00,50.7,32.3,28.79,SSE,158,19.5,26.6,49,0.00,,,0.00,VWS V14.01,2013-04-21 16:35:00,
2013-04-21 11:40:00,50.7,31.8,28.79,SSE,158,19.5,26.0,48,0.00,,,0.00,VWS V14.01,2013-04-21 16:40:00,
2013-04-21 11:45:00,51.1,32.1,28.79,SSE,158,26.2,26.2,48,0.00,,,0.00,VWS V14.01,2013-04-21 16:45:00,
2013-04-21 11:50:00,51.6,32.6,28.79,SSE,158,18.8,26.2,48,0.00,,,0.00,VWS V14.01,2013-04-21 16:50:00,
2013-04-21 11:55:00,51.8,33.3,28.79,South,180,17.9,23.5,49,0.00,,,0.00,VWS V14.01,2013-04-21 16:55:00,
2013-04-21 12:00:00,52.3,33.2,28.79,SSE,158,19.9,21.9,48,0.00,,,0.00,VWS V14.01,2013-04-21 17:00:00,
2013-04-21 12:05:00,53.1,33.9,28.79,SSE,158,20.4,23.0,48,0.00,,,0.00,VWS V14.01,2013-04-21 17:05:00,
2013-04-21 12:10:00,55.0,35.2,28.76,SSE,158,19.0,23.9,47,0.00,,,0.00,VWS V14.01,2013-04-21 17:10:00,
2013-04-21 12:15:00,56.3,35.2,28.76,SSE,158,19.9,26.0,45,0.00,,,0.00,VWS V14.01,2013-04-21 17:15:00,
2013-04-21 12:20:00,55.8,34.8,28.76,SSE,158,22.8,24.4,45,0.00,,,0.00,VWS V14.01,2013-04-21 17:20:00,
2013-04-21 12:25:00,55.9,34.9,28.76,SSE,158,12.8,24.2,45,0.00,,,0.00,VWS V14.01,2013-04-21 17:25:00,
2013-04-21 12:30:00,56.5,34.8,28.76,SSE,158,15.4,21.0,44,0.00,,,0.00,VWS V14.01,2013-04-21 17:30:00,
2013-04-21 12:35:00,58.8,36.4,28.76,SSE,158,19.5,19.9,43,0.00,,,0.00,VWS V14.01,2013-04-21 17:35:00,
2013-04-21 12:40:00,61.0,36.5,28.76,SSE,158,16.6,23.5,40,0.00,,,0.00,VWS V14.01,2013-04-21 17:40:00,
2013-04-21 12:45:00,62.2,36.3,28.76,SSW,202,22.6,26.0,38,0.00,,,0.00,VWS V14.01,2013-04-21 17:45:00,
2013-04-21 12:50:00,62.6,35.3,28.76,South,180,21.3,23.9,36,0.00,,,0.00,VWS V14.01,2013-04-21 17:50:00,
2013-04-21 12:55:00,63.9,37.1,28.73,South,180,14.1,22.6,37,0.00,,,0.00,VWS V14.01,2013-04-21 17:55:00,
2013-04-21 13:00:00,64.2,36.0,28.73,SSW,202,16.8,23.9,35,0.00,,,0.00,VWS V14.01,2013-04-21 18:00:00,
2013-04-21 13:05:00,63.9,35.7,28.73,SSW,202,19.7,23.5,35,0.00,,,0.00,VWS V14.01,2013-04-21 18:05:00,
2013-04-21 13:10:00,66.0,36.9,28.73,South,180,23.5,28.6,34,0.00,,,0.00,VWS V14.01,2013-04-21 18:10:00,
2013-04-21 13:15:00,66.2,36.3,28.73,South,180,23.3,32.7,33,0.00,,,0.00,VWS V14.01,2013-04-21 18:15:00,
2013-04-21 13:20:00,66.6,36.6,28.73,SSW,202,16.8,29.5,33,0.00,,,0.00,VWS V14.01,2013-04-21 18:20:00,
2013-04-21 13:25:00,66.7,36.8,28.73,South,180,23.7,33.3,33,0.00,,,0.00,VWS V14.01,2013-04-21 18:25:00,
2013-04-21 13:30:00,66.6,35.8,28.73,SSE,158,25.1,31.1,32,0.00,,,0.00,VWS V14.01,2013-04-21 18:30:00,
2013-04-21 13:35:00,66.6,36.6,28.73,SSW,202,13.4,25.5,33,0.00,,,0.00,VWS V14.01,2013-04-21 18:35:00,
2013-04-21 13:40:00,65.7,35.8,28.73,SSW,202,15.7,28.4,33,0.00,,,0.00,VWS V14.01,2013-04-21 18:40:00,
2013-04-21 13:45:00,66.0,36.1,28.73,SSW,202,20.6,28.6,33,0.00,,,0.00,VWS V14.01,2013-04-21 18:45:00,
2013-04-21 13:50:00,66.0,35.3,28.73,SSW,202,19.9,29.5,32,0.00,,,0.00,VWS V14.01,2013-04-21 18:50:00,
2013-04-21 13:55:00,66.2,33.9,28.73,SSW,202,22.8,25.1,30,0.00,,,0.00,VWS V14.01,2013-04-21 18:55:00,
2013-04-21 14:00:00,66.4,34.9,28.73,South,180,19.5,27.5,31,0.00,,,0.00,VWS V14.01,2013-04-21 19:00:00,
2013-04-21 14:05:00,66.0,34.5,28.73,SSW,202,16.8,26.2,31,0.00,,,0.00,VWS V14.01,2013-04-21 19:05:00,
2013-04-21 14:10:00,66.2,33.9,28.70,SSW,202,16.3,34.0,30,0.00,,,0.00,VWS V14.01,2013-04-21 19:10:00,
2013-04-21 14:15:00,66.0,32.9,28.70,SSW,202,32.4,32.4,29,0.00,,,0.00,VWS V14.01,2013-04-21 19:15:00,
2013-04-21 14:20:00,65.7,32.6,28.70,SSW,202,23.9,32.4,29,0.00,,,0.00,VWS V14.01,2013-04-21 19:20:00,
2013-04-21 14:25:00,65.3,32.3,28.70,South,180,22.6,23.9,29,0.00,,,0.00,VWS V14.01,2013-04-21 19:25:00,
2013-04-21 14:30:00,64.6,31.6,28.70,SSW,202,17.9,26.9,29,0.00,,,0.00,VWS V14.01,2013-04-21 19:30:00,
2013-04-21 14:35:00,64.4,32.3,28.70,SSW,202,17.7,17.9,30,0.00,,,0.00,VWS V14.01,2013-04-21 19:35:00,
2013-04-21 14:40:00,64.2,33.0,28.70,SW,225,12.3,18.8,31,0.00,,,0.00,VWS V14.01,2013-04-21 19:40:00,
2013-04-21 14:45:00,64.2,32.2,28.70,SSW,202,17.5,19.9,30,0.00,,,0.00,VWS V14.01,2013-04-21 19:45:00,
2013-04-21 14:50:00,64.2,33.0,28.70,SSW,202,22.6,29.8,31,0.00,,,0.00,VWS V14.01,2013-04-21 19:50:00,
2013-04-21 14:55:00,64.2,32.2,28.70,SSW,202,27.1,27.7,30,0.00,,,0.00,VWS V14.01,2013-04-21 19:55:00,
2013-04-21 15:00:00,64.6,32.5,28.70,South,180,13.0,27.1,30,0.00,,,0.00,VWS V14.01,2013-04-21 20:00:00,
2013-04-21 15:05:00,64.8,32.6,28.70,SSW,202,28.6,28.9,30,0.00,,,0.00,VWS V14.01,2013-04-21 20:05:00,
2013-04-21 15:10:00,64.8,32.6,28.70,SSW,202,23.3,28.6,30,0.00,,,0.00,VWS V14.01,2013-04-21 20:10:00,
2013-04-21 15:15:00,64.4,32.3,28.70,SSE,158,18.1,26.4,30,0.00,,,0.00,VWS V14.01,2013-04-21 20:15:00,
2013-04-21 15:20:00,64.0,32.8,28.70,SSW,202,14.8,22.4,31,0.00,,,0.00,VWS V14.01,2013-04-21 20:20:00,
2013-04-21 15:25:00,63.9,32.7,28.70,SW,225,17.2,19.7,31,0.00,,,0.00,VWS V14.01,2013-04-21 20:25:00,
2013-04-21 15:30:00,63.3,32.2,28.70,SW,225,15.4,23.5,31,0.00,,,0.00,VWS V14.01,2013-04-21 20:30:00,
2013-04-21 15:35:00,63.3,32.2,28.70,SSW,202,12.3,24.4,31,0.00,,,0.00,VWS V14.01,2013-04-21 20:35:00,
2013-04-21 15:40:00,62.8,31.7,28.70,SSW,202,19.9,24.4,31,0.00,,,0.00,VWS V14.01,2013-04-21 20:40:00,
2013-04-21 15:45:00,60.6,32.8,28.70,WSW,248,14.8,27.1,35,0.00,,,0.00,VWS V14.01,2013-04-21 20:45:00,
2013-04-21 15:50:00,59.2,34.3,28.70,SW,225,13.2,25.5,39,0.00,,,0.00,VWS V14.01,2013-04-21 20:50:00,
2013-04-21 15:55:00,57.6,35.8,28.70,SW,225,19.9,26.2,44,0.00,,,0.00,VWS V14.01,2013-04-21 20:55:00,
2013-04-21 16:00:00,56.8,36.8,28.70,SW,225,15.4,23.7,47,0.00,,,0.00,VWS V14.01,2013-04-21 21:00:00,
2013-04-21 16:05:00,57.4,36.8,28.70,SSW,202,19.0,19.5,46,0.00,,,0.00,VWS V14.01,2013-04-21 21:05:00,
2013-04-21 16:10:00,56.5,38.1,28.73,SW,225,13.0,19.0,50,0.00,,,0.00,VWS V14.01,2013-04-21 21:10:00,
2013-04-21 16:15:00,55.8,37.4,28.73,WSW,248,19.2,19.2,50,0.00,,,0.00,VWS V14.01,2013-04-21 21:15:00,
2013-04-21 16:20:00,55.6,41.0,28.73,West,270,11.0,19.7,58,0.00,,,0.00,VWS V14.01,2013-04-21 21:20:00,
2013-04-21 16:25:00,54.7,41.5,28.73,WSW,248,16.8,19.2,61,0.04,,,0.04,VWS V14.01,2013-04-21 21:25:00,
2013-04-21 16:30:00,54.0,40.8,28.73,SW,225,10.5,17.7,61,0.04,,,0.04,VWS V14.01,2013-04-21 21:30:00,
2013-04-21 16:35:00,53.6,42.1,28.73,WSW,248,6.0,10.5,65,0.08,,,0.08,VWS V14.01,2013-04-21 21:35:00,
2013-04-21 16:40:00,53.4,42.8,28.73,WNW,292,8.1,11.4,67,0.08,,,0.08,VWS V14.01,2013-04-21 21:40:00,
2013-04-21 16:45:00,53.4,42.8,28.73,WSW,248,6.7,13.2,67,0.08,,,0.08,VWS V14.01,2013-04-21 21:45:00,
2013-04-21 16:50:00,53.6,44.1,28.73,SW,225,4.9,7.8,70,0.08,,,0.08,VWS V14.01,2013-04-21 21:50:00,
2013-04-21 16:55:00,53.6,44.1,28.73,SW,225,5.6,8.1,70,0.08,,,0.08,VWS V14.01,2013-04-21 21:55:00,
2013-04-21 17:00:00,53.4,43.9,28.73,SW,225,7.8,7.8,70,0.08,,,0.08,VWS V14.01,2013-04-21 22:00:00,
2013-04-21 17:05:00,53.6,43.7,28.73,SW,225,8.5,8.7,69,0.12,,,0.12,VWS V14.01,2013-04-21 22:05:00,
2013-04-21 17:10:00,53.8,43.9,28.73,SW,225,9.8,12.5,69,0.12,,,0.12,VWS V14.01,2013-04-21 22:10:00,
2013-04-21 17:15:00,53.8,42.7,28.73,SW,225,8.7,9.8,66,0.12,,,0.12,VWS V14.01,2013-04-21 22:15:00,
2013-04-21 17:20:00,54.1,43.0,28.73,SSW,202,7.8,8.7,66,0.12,,,0.12,VWS V14.01,2013-04-21 22:20:00,
2013-04-21 17:25:00,54.1,42.7,28.73,SSW,202,6.7,8.7,65,0.12,,,0.12,VWS V14.01,2013-04-21 22:25:00,
2013-04-21 17:30:00,54.3,42.8,28.73,SSW,202,7.2,8.5,65,0.08,,,0.12,VWS V14.01,2013-04-21 22:30:00,
2013-04-21 17:35:00,54.5,43.4,28.73,SSW,202,8.1,9.0,66,0.08,,,0.12,VWS V14.01,2013-04-21 22:35:00,
2013-04-21 17:40:00,54.9,45.3,28.73,SSW,202,8.1,8.7,70,0.04,,,0.12,VWS V14.01,2013-04-21 22:40:00,
2013-04-21 17:45:00,54.7,45.1,28.73,SSW,202,7.4,9.8,70,0.04,,,0.12,VWS V14.01,2013-04-21 22:45:00,
2013-04-21 17:50:00,54.9,44.5,28.73,SSE,158,8.7,10.7,68,0.04,,,0.12,VWS V14.01,2013-04-21 22:50:00,
2013-04-21 17:55:00,54.7,44.0,28.73,SSE,158,11.0,13.2,67,0.04,,,0.12,VWS V14.01,2013-04-21 22:55:00,
2013-04-21 18:00:00,54.9,42.9,28.73,SSE,158,7.4,13.2,64,0.04,,,0.12,VWS V14.01,2013-04-21 23:00:00,
2013-04-21 18:05:00,54.9,44.1,28.73,SSE,158,11.4,12.8,67,0.04,,,0.12,VWS V14.01,2013-04-21 23:05:00,
2013-04-21 18:10:00,54.7,44.0,28.73,SSE,158,12.3,15.2,67,0.00,,,0.12,VWS V14.01,2013-04-21 23:10:00,
2013-04-21 18:15:00,54.7,44.0,28.73,SSE,158,13.0,15.4,67,0.00,,,0.12,VWS V14.01,2013-04-21 23:15:00,
2013-04-21 18:20:00,54.7,44.3,28.73,SSE,158,12.3,16.3,68,0.00,,,0.12,VWS V14.01,2013-04-21 23:20:00,
2013-04-21 18:25:00,54.5,44.2,28.70,SSE,158,8.5,14.5,68,0.00,,,0.12,VWS V14.01,2013-04-21 23:25:00,
2013-04-21 18:30:00,54.3,44.4,28.70,SSE,158,10.1,13.4,69,0.00,,,0.12,VWS V14.01,2013-04-21 23:30:00,
2013-04-21 18:35:00,54.3,44.4,28.70,SSE,158,10.5,13.0,69,0.00,,,0.12,VWS V14.01,2013-04-21 23:35:00,
2013-04-21 18:40:00,54.5,44.5,28.73,SSE,158,12.8,12.8,69,0.00,,,0.12,VWS V14.01,2013-04-21 23:40:00,
2013-04-21 18:45:00,54.3,44.4,28.73,SSE,158,10.1,15.4,69,0.00,,,0.12,VWS V14.01,2013-04-21 23:45:00,
2013-04-21 18:50:00,54.5,44.2,28.73,SSW,202,11.2,14.5,68,0.00,,,0.12,VWS V14.01,2013-04-21 23:50:00,
2013-04-21 18:55:00,54.5,44.2,28.70,SSW,202,10.1,17.9,68,0.00,,,0.12,VWS V14.01,2013-04-21 23:55:00,
2013-04-21 19:00:00,54.3,44.4,28.70,SSW,202,11.0,13.6,69,0.00,,,0.12,VWS V14.01,2013-04-22 00:00:00,
2013-04-21 19:05:00,54.0,44.4,28.70,South,180,10.3,12.3,70,0.00,,,0.12,VWS V14.01,2013-04-22 00:05:00,
2013-04-21 19:10:00,53.8,44.6,28.73,South,180,10.5,11.4,71,0.00,,,0.12,VWS V14.01,2013-04-22 00:10:00,
2013-04-21 19:15:00,53.8,44.6,28.73,South,180,9.8,12.8,71,0.00,,,0.12,VWS V14.01,2013-04-22 00:15:00,
2013-04-21 19:20:00,53.6,44.4,28.73,South,180,5.8,10.7,71,0.00,,,0.12,VWS V14.01,2013-04-22 00:20:00,
2013-04-21 19:25:00,53.6,44.4,28.73,SSW,202,10.1,12.3,71,0.00,,,0.12,VWS V14.01,2013-04-22 00:25:00,
2013-04-21 19:30:00,53.4,44.6,28.73,SSW,202,7.6,10.1,72,0.00,,,0.12,VWS V14.01,2013-04-22 00:30:00,
2013-04-21 19:35:00,53.4,44.6,28.73,SSW,202,6.5,7.8,72,0.00,,,0.12,VWS V14.01,2013-04-22 00:35:00,
2013-04-21 19:40:00,53.1,45.0,28.73,SSW,202,6.3,7.2,74,0.00,,,0.12,VWS V14.01,2013-04-22 00:40:00,
2013-04-21 19:45:00,53.1,45.0,28.73,SSW,202,7.2,8.1,74,0.00,,,0.12,VWS V14.01,2013-04-22 00:45:00,
2013-04-21 19:50:00,53.1,45.0,28.73,South,180,7.4,8.7,74,0.00,,,0.12,VWS V14.01,2013-04-22 00:50:00,
2013-04-21 19:55:00,53.1,45.4,28.76,SSW,202,6.0,9.8,75,0.00,,,0.12,VWS V14.01,2013-04-22 00:55:00,
2013-04-21 20:00:00,52.9,45.2,28.76,SSW,202,9.6,9.6,75,0.00,,,0.12,VWS V14.01,2013-04-22 01:00:00,
2013-04-21 20:05:00,52.9,45.2,28.76,SSW,202,5.8,9.6,75,0.00,,,0.12,VWS V14.01,2013-04-22 01:05:00,
2013-04-21 20:10:00,52.5,45.5,28.76,SW,225,4.9,5.8,77,0.00,,,0.12,VWS V14.01,2013-04-22 01:10:00,
2013-04-21 20:15:00,52.3,46.0,28.76,WSW,248,4.0,6.5,79,0.00,,,0.12,VWS V14.01,2013-04-22 01:15:00,
2013-04-21 20:20:00,51.8,45.8,28.76,West,270,5.6,7.4,80,0.00,,,0.12,VWS V14.01,2013-04-22 01:20:00,
2013-04-21 20:25:00,51.8,46.2,28.76,SW,225,3.1,6.5,81,0.00,,,0.12,VWS V14.01,2013-04-22 01:25:00,
2013-04-21 20:30:00,51.6,46.3,28.76,SW,225,5.6,5.6,82,0.00,,,0.12,VWS V14.01,2013-04-22 01:30:00,
2013-04-21 20:35:00,51.6,47.0,28.76,SW,225,4.5,7.8,84,0.00,,,0.12,VWS V14.01,2013-04-22 01:35:00,
2013-04-21 20:40:00,51.6,47.0,28.76,SSW,202,5.4,6.7,84,0.00,,,0.12,VWS V14.01,2013-04-22 01:40:00,
2013-04-21 20:45:00,51.6,47.0,28.76,SSW,202,5.4,7.4,84,0.00,,,0.12,VWS V14.01,2013-04-22 01:45:00,
2013-04-21 20:50:00,51.6,47.0,28.76,SW,225,6.0,7.6,84,0.00,,,0.12,VWS V14.01,2013-04-22 01:50:00,
2013-04-21 20:55:00,51.6,47.0,28.76,SSW,202,4.5,6.0,84,0.00,,,0.12,VWS V14.01,2013-04-22 01:55:00,
2013-04-21 21:00:00,51.4,46.8,28.76,SSW,202,5.4,5.6,84,0.00,,,0.12,VWS V14.01,2013-04-22 02:00:00,
2013-04-21 21:05:00,51.4,47.1,28.76,WSW,248,6.3,8.5,85,0.00,,,0.12,VWS V14.01,2013-04-22 02:05:00,
2013-04-21 21:10:00,51.3,46.9,28.79,WSW,248,6.5,8.1,85,0.00,,,0.12,VWS V14.01,2013-04-22 02:10:00,
2013-04-21 21:15:00,51.1,46.7,28.79,WNW,292,7.4,7.8,85,0.00,,,0.12,VWS V14.01,2013-04-22 02:15:00,
2013-04-21 21:20:00,50.9,46.6,28.79,NW,315,5.4,11.0,85,0.04,,,0.16,VWS V14.01,2013-04-22 02:20:00,
2013-04-21 21:25:00,50.7,46.1,28.79,NNW,338,4.3,7.6,84,0.04,,,0.16,VWS V14.01,2013-04-22 02:25:00,
2013-04-21 21:30:00,50.5,45.6,28.79,NNW,338,3.4,6.3,83,0.04,,,0.16,VWS V14.01,2013-04-22 02:30:00,
2013-04-21 21:35:00,50.4,45.4,28.79,NNW,338,3.4,5.8,83,0.04,,,0.16,VWS V14.01,2013-04-22 02:35:00,
2013-04-21 21:40:00,50.0,45.0,28.79,NNW,338,1.6,4.3,83,0.04,,,0.16,VWS V14.01,2013-04-22 02:40:00,
2013-04-21 21:45:00,49.8,44.9,28.79,WNW,292,2.7,4.3,83,0.04,,,0.16,VWS V14.01,2013-04-22 02:45:00,
2013-04-21 21:50:00,49.5,44.2,28.79,North,0,0.0,3.8,82,0.04,,,0.16,VWS V14.01,2013-04-22 02:50:00,
2013-04-21 21:55:00,49.1,43.5,28.79,NNE,22,0.0,2.5,81,0.04,,,0.16,VWS V14.01,2013-04-22 02:55:00,
2013-04-21 22:00:00,48.6,42.7,28.79,NNE,22,0.0,0.0,80,0.04,,,0.16,VWS V14.01,2013-04-22 03:00:00,
2013-04-21 22:05:00,48.2,42.3,28.79,ENE,68,0.0,0.0,80,0.04,,,0.16,VWS V14.01,2013-04-22 03:05:00,
2013-04-21 22:10:00,47.8,42.3,28.79,NNE,22,0.0,0.0,81,0.04,,,0.16,VWS V14.01,2013-04-22 03:10:00,
2013-04-21 22:15:00,47.7,42.1,28.79,ESE,112,1.1,1.3,81,0.04,,,0.16,VWS V14.01,2013-04-22 03:15:00,
2013-04-21 22:20:00,47.8,42.6,28.79,NE,45,1.6,1.6,82,0.04,,,0.16,VWS V14.01,2013-04-22 03:20:00,
2013-04-21 22:25:00,47.8,42.6,28.82,NNE,22,2.5,2.5,82,0.00,,,0.16,VWS V14.01,2013-04-22 03:25:00,
2013-04-21 22:30:00,48.0,43.1,28.82,NNE,22,1.3,2.7,83,0.00,,,0.16,VWS V14.01,2013-04-22 03:30:00,
2013-04-21 22:35:00,48.0,43.1,28.82,NNE,22,1.3,1.6,83,0.00,,,0.16,VWS V14.01,2013-04-22 03:35:00,
2013-04-21 22:40:00,48.0,43.1,28.79,NE,45,2.7,2.7,83,0.00,,,0.16,VWS V14.01,2013-04-22 03:40:00,
2013-04-21 22:45:00,48.0,43.1,28.79,NNE,22,0.0,3.1,83,0.00,,,0.16,VWS V14.01,2013-04-22 03:45:00,
2013-04-21 22:50:00,48.0,43.1,28.79,NNE,22,1.6,2.0,83,0.00,,,0.16,VWS V14.01,2013-04-22 03:50:00,
2013-04-21 22:55:00,48.0,43.1,28.82,NE,45,2.7,2.7,83,0.00,,,0.16,VWS V14.01,2013-04-22 03:55:00,
2013-04-21 23:00:00,48.0,43.1,28.82,NNE,22,2.7,2.9,83,0.00,,,0.16,VWS V14.01,2013-04-22 04:00:00,
2013-04-21 23:05:00,48.2,43.3,28.82,NW,315,1.6,2.7,83,0.00,,,0.16,VWS V14.01,2013-04-22 04:05:00,
2013-04-21 23:10:00,48.2,43.6,28.82,NNW,338,3.8,4.9,84,0.00,,,0.16,VWS V14.01,2013-04-22 04:10:00,
2013-04-21 23:15:00,48.0,43.7,28.82,NNW,338,2.7,4.3,85,0.00,,,0.16,VWS V14.01,2013-04-22 04:15:00,
2013-04-21 23:20:00,47.7,43.4,28.82,NNW,338,4.3,6.0,85,0.00,,,0.16,VWS V14.01,2013-04-22 04:20:00,
2013-04-21 23:25:00,47.3,42.7,28.82,NNW,338,3.6,4.3,84,0.00,,,0.16,VWS V14.01,2013-04-22 04:25:00,
2013-04-21 23:30:00,47.1,42.2,28.82,NW,315,2.9,4.0,83,0.00,,,0.16,VWS V14.01,2013-04-22 04:30:00,
2013-04-21 23:35:00,46.9,42.0,28.82,NNW,338,2.0,3.8,83,0.00,,,0.16,VWS V14.01,2013-04-22 04:35:00,
2013-04-21 23:40:00,46.8,41.9,28.82,North,0,1.1,2.9,83,0.00,,,0.16,VWS V14.01,2013-04-22 04:40:00,
2013-04-21 23:45:00,46.6,41.7,28.82,NNW,338,1.6,4.3,83,0.00,,,0.16,VWS V14.01,2013-04-22 04:45:00,
2013-04-21 23:50:00,46.4,41.5,28.82,NNW,338,2.9,4.9,83,0.00,,,0.16,VWS V14.01,2013-04-22 04:50:00,
2013-04-21 23:55:00,46.2,41.3,28.82,NNE,22,3.1,4.7,83,0.00,,,0.16,VWS V14.01,2013-04-22 04:55:00,